"2016-01-15 00:00:00",1285851,13.27,335.9,7.915,1.721,9.47,101.3373,2.711,3.975,22.46,0,109.8,13.28,3.47,297.9
"2016-01-15 00:00:30",1285852,14.62,336,8.49,1.324,9.57,101.3325,2.699,3.947,22.13,0,109.8,13.28,3.46,298.0
"2016-01-15 00:01:00",1285853,14.81,338.5,8.74,1.491,9.94,101.3274,2.686,3.948,22.32,0,109.8,13.28,3.45,300.5
"2016-01-15 00:01:30",1285854,15.46,338.2,7.776,2.246,10.12,101.33,2.693,3.965,22.51,0,109.8,13.28,3.45,300.2
"2016-01-15 00:02:00",1285855,16.92,339.3,9.02,1.824,9.57,101.3241,2.678,3.96,22.86,0,109.8,13.28,3.44,301.3
"2016-01-15 00:02:30",1285856,14.51,343.2,7.139,2.096,9.93,101.3156,2.656,3.952,22.96,0,109.8,13.28,3.42,305.2
"2016-01-15 00:03:00",1285857,16.1,339.9,7.413,1.536,10.2,101.3151,2.655,3.928,23.03,0,109.8,13.27,3.42,301.9
"2016-01-15 00:03:30",1285858,16.09,339.8,7.26,1.452,9.83,101.3153,2.655,3.936,22.65,0,109.8,13.27,3.42,301.8
"2016-01-15 00:04:00",1285859,16.39,336,6.099,1.189,9.9,101.3154,2.655,3.906,22.75,0,109.8,13.27,3.42,298.0
"2016-01-15 00:04:30",1285860,15.54,337.3,6.98,1.249,9.97,101.314,2.652,3.872,22.77,0,109.8,13.27,3.41,299.3
"2016-01-15 00:05:00",1285861,15.52,338,6.847,1.326,9.74,101.305,2.629,3.892,22.49,0,109.8,13.28,3.39,300.0
"2016-01-15 00:05:30",1285862,16.16,337.4,6.89,1.164,9.85,101.3024,2.622,3.876,22.9,0,109.8,13.27,3.38,299.4
"2016-01-15 00:06:00",1285863,15.98,343.9,6.835,1.35,10.17,101.2925,2.597,3.859,23.61,0,109.8,13.27,3.36,305.9
"2016-01-15 00:06:30",1285864,16.27,341.6,6.438,1.292,9.77,101.2892,2.589,3.869,23.58,0,109.8,13.27,3.35,303.6
"2016-01-15 00:07:00",1285865,17.08,342.2,6.679,1.375,9.91,101.2892,2.589,3.845,23.15,0,109.8,13.27,3.35,304.2
"2016-01-15 00:07:30",1285866,16.37,342.4,5.982,1.782,9.89,101.2866,2.582,3.842,23.56,0,109.8,13.28,3.34,304.4
"2016-01-15 00:08:00",1285867,17.42,342.2,6.505,1.359,9.96,101.277,2.558,3.811,23.32,0,109.8,13.28,3.32,304.2
"2016-01-15 00:08:30",1285868,15.66,344.4,6.454,1.626,10.23,101.2677,2.534,3.806,22.53,0,109.8,13.29,3.29,306.4
"2016-01-15 00:09:00",1285869,15.28,345.9,7.337,1.433,10.43,101.2612,2.517,3.79,21.91,0,109.8,13.29,3.28,307.9
"2016-01-15 00:09:30",1285870,15.98,347.1,5.927,1.294,10.1,101.2564,2.505,3.791,21.85,0,109.8,13.29,3.27,309.1
"2016-01-15 00:10:00",1285871,15.53,345.2,6.353,1.421,10,101.2561,2.504,3.791,21.97,0,109.8,13.29,3.27,307.2
"2016-01-15 00:10:30",1285872,16.6,342.1,6.997,1.335,9.91,101.2589,2.511,3.774,22.08,0,109.8,13.29,3.27,304.1
"2016-01-15 00:11:00",1285873,16.93,338.6,6.543,1.286,10.08,101.2623,2.52,3.779,22.01,0,109.8,13.29,3.28,300.6
"2016-01-15 00:11:30",1285874,15.52,341.2,6.583,1.473,10.2,101.268,2.535,3.796,22,0,109.8,13.29,3.30,303.2
"2016-01-15 00:12:00",1285875,15.45,340.4,6.354,1.394,10.35,101.2682,2.535,3.795,21.98,0,109.8,13.29,3.30,302.4
"2016-01-15 00:12:30",1285876,15.36,341.7,6.348,1.198,10.19,101.2708,2.542,3.811,21.8,0,109.8,13.29,3.30,303.7
"2016-01-15 00:13:00",1285877,15.77,337.9,6.364,1.226,10.04,101.2733,2.548,3.793,21.87,0,109.8,13.29,3.31,299.9
"2016-01-15 00:13:30",1285878,15.06,339.3,6.739,1.314,9.82,101.2782,2.561,3.773,22.01,0,109.8,13.29,3.32,301.3
"2016-01-15 00:14:00",1285879,14.71,336.7,6.496,1.237,9.81,101.2818,2.57,3.804,22.12,0,109.8,13.29,3.33,298.7
"2016-01-15 00:14:30",1285880,13.7,339.8,6.282,1.412,9.86,101.2867,2.582,3.831,22.16,0,109.8,13.29,3.34,301.8
"2016-01-15 00:15:00",1285881,14.68,340.6,6.146,1.255,9.98,101.2901,2.591,3.802,22.13,0,109.8,13.29,3.35,302.6
"2016-01-15 00:15:30",1285882,14.4,342.2,6.357,1.226,9.84,101.2924,2.597,3.823,22.23,0,109.8,13.29,3.36,304.2
"2016-01-15 00:16:00",1285883,14.58,340.3,6.989,1.33,9.95,101.2961,2.606,3.821,21.95,0,109.8,13.29,3.37,302.3
"2016-01-15 00:16:30",1285884,14.09,341.5,6.885,1.131,9.98,101.2942,2.601,3.798,21.78,0,109.8,13.29,3.36,303.5
"2016-01-15 00:17:00",1285885,13.72,342.7,6.369,1.429,9.92,101.2953,2.604,3.837,21.84,0,109.7,13.29,3.37,304.7
"2016-01-15 00:17:30",1285886,14.39,343.5,6.919,1.307,9.6,101.297,2.609,3.835,22,0,109.8,13.29,3.37,305.5
"2016-01-15 00:18:00",1285887,14.99,341,6.66,1.505,10.38,101.2984,2.612,3.801,21.94,0,109.8,13.29,3.37,303.0
"2016-01-15 00:18:30",1285888,14.49,331.5,6.762,1.334,9.75,101.2967,2.608,3.849,22.12,0,109.8,13.3,3.37,293.5
"2016-01-15 00:19:00",1285889,14.86,331.9,7.246,1.267,9.48,101.2945,2.602,3.816,22.46,0,109.8,13.3,3.36,293.9
"2016-01-15 00:19:30",1285890,14.28,326.6,6.757,1.375,9.49,101.2922,2.596,3.842,23.16,0,109.8,13.29,3.36,288.6
"2016-01-15 00:20:00",1285891,13.47,330.2,6.664,1.271,9.58,101.2908,2.593,3.825,23.23,0,109.8,13.29,3.35,292.2
"2016-01-15 00:20:30",1285892,12.96,331.5,7.312,1.25,9.33,101.2863,2.581,3.806,23.8,0,109.8,13.29,3.34,293.5
"2016-01-15 00:21:00",1285893,12.15,326,8.45,1.341,9.7,101.2787,2.562,3.821,23.98,0,109.8,13.29,3.32,288.0
"2016-01-15 00:21:30",1285894,11.59,328.5,6.511,1.26,9.52,101.2778,2.56,3.832,23.92,0,109.8,13.29,3.32,290.5
"2016-01-15 00:22:00",1285895,10.48,329.2,6.598,1.315,8.95,101.2787,2.562,3.801,24.1,0,109.8,13.29,3.32,291.2
"2016-01-15 00:22:30",1285896,10.84,325.6,6.98,1.194,9.01,101.2767,2.557,3.8,24.53,0,109.8,13.29,3.32,287.6
"2016-01-15 00:23:00",1285897,10.58,324.6,6.487,1.253,8.77,101.2637,2.524,3.772,24.86,0,109.8,13.29,3.28,286.6
"2016-01-15 00:23:30",1285898,9.75,324.6,8.03,1.272,8.96,101.2524,2.495,3.763,24.8,0,109.8,13.29,3.26,286.6
"2016-01-15 00:24:00",1285899,9.42,333,6.217,1.259,9.46,101.2482,2.484,3.788,24.19,0,109.8,13.29,3.24,295.0
"2016-01-15 00:24:30",1285900,8.8,331.4,7.156,1.238,8.65,101.2448,2.475,3.778,24.15,0,109.8,13.29,3.24,293.4
"2016-01-15 00:25:00",1285901,8.81,329.8,6.83,1.236,8.47,101.2327,2.444,3.736,24.74,0,109.8,13.29,3.21,291.8
"2016-01-15 00:25:30",1285902,9.88,331.1,6.271,1.471,8.58,101.2199,2.412,3.725,25.08,0,109.8,13.3,3.17,293.1
"2016-01-15 00:26:00",1285903,9.27,324.2,7.688,1.324,8.47,101.2151,2.4,3.696,25.06,0,109.8,13.3,3.16,286.2
"2016-01-15 00:26:30",1285904,10.18,323.6,6.809,1.302,8.8,101.2052,2.374,3.699,25.02,0,109.8,13.3,3.13,285.6
"2016-01-15 00:27:00",1285905,11.58,329.2,7.784,1.276,9.44,101.1852,2.323,3.664,24.53,0,109.8,13.3,3.08,291.2
"2016-01-15 00:27:30",1285906,11.31,332.1,6.401,1.174,9.09,101.1878,2.33,3.633,23.69,0,109.8,13.3,3.09,294.1
"2016-01-15 00:28:00",1285907,12.89,334.3,6.264,1.252,9.39,101.1812,2.313,3.611,23.43,0,109.8,13.3,3.07,296.3
"2016-01-15 00:28:30",1285908,12.66,330.8,7.013,1.259,9.29,101.1714,2.288,3.597,23.16,0,109.8,13.3,3.05,292.8
"2016-01-15 00:29:00",1285909,13.55,338.9,6.654,1.369,9.36,101.1671,2.277,3.596,23.2,0,109.8,13.3,3.04,300.9
"2016-01-15 00:29:30",1285910,14.61,339.6,6.548,1.239,9.43,101.1558,2.248,3.568,23.1,0,109.8,13.3,3.01,301.6
"2016-01-15 00:30:00",1285911,14.26,335.4,6.73,1.574,9.58,101.1541,2.244,3.549,23.64,0,109.8,13.3,3.00,297.4
"2016-01-15 00:30:30",1285912,12.72,327,8.51,1.324,9.02,101.1541,2.244,3.551,24.37,0,109.8,13.3,3.00,289.0
"2016-01-15 00:31:00",1285913,11.64,316.3,6.628,1.338,9.12,101.1541,2.244,3.532,24.94,0,109.8,13.3,3.00,278.3
"2016-01-15 00:31:30",1285914,10.9,320.6,6.866,1.405,9.66,101.1541,2.244,3.52,24.73,0,109.8,13.3,3.00,282.6
"2016-01-15 00:32:00",1285915,9.9,318.8,7.326,1.268,9.75,101.1535,2.243,3.513,23.76,0,109.8,13.3,3.00,280.8
"2016-01-15 00:32:30",1285916,10.17,310.9,6.531,1.368,9.29,101.1504,2.235,3.532,23.59,0,109.8,13.3,2.99,272.9
"2016-01-15 00:33:00",1285917,11.45,313.8,7.469,1.526,8.87,101.1501,2.234,3.512,23.64,0,109.8,13.3,2.99,275.8
"2016-01-15 00:33:30",1285918,13.31,312.8,7.697,1.605,9.2,101.1465,2.225,3.512,23.94,0,109.8,13.3,2.98,274.8
"2016-01-15 00:34:00",1285919,9.75,315.2,6.752,1.372,8.82,101.1487,2.23,3.507,24.71,0,109.8,13.3,2.99,277.2
"2016-01-15 00:34:30",1285920,10.28,310.1,7.934,1.547,8.81,101.1414,2.212,3.497,24.88,0,109.8,13.3,2.97,272.1
"2016-01-15 00:35:00",1285921,12.76,322.3,8.39,1.678,9.17,101.1405,2.209,3.512,24.01,0,109.8,13.3,2.97,284.3
"2016-01-15 00:35:30",1285922,13.1,319.9,6.153,1.486,9.21,101.1419,2.213,3.492,23.69,0,109.8,13.3,2.97,281.9
"2016-01-15 00:36:00",1285923,11.04,318,9.77,1.5,8.97,101.1434,2.217,3.477,23.71,0,109.8,13.3,2.98,280.0
"2016-01-15 00:36:30",1285924,8.49,303.7,10.84,1.596,9.44,101.1462,2.224,3.48,23.75,0,109.8,13.3,2.98,265.7
"2016-01-15 00:37:00",1285925,9.1,309,7.014,1.272,9.33,101.1507,2.235,3.521,23.74,0,109.8,13.3,3.00,271.0
"2016-01-15 00:37:30",1285926,10.29,304.1,9.12,1.339,8.69,101.153,2.241,3.482,23.89,0,109.8,13.29,3.00,266.1
"2016-01-15 00:38:00",1285927,10.27,301.7,9.78,1.417,8.7,101.1541,2.244,3.479,24.3,0,109.8,13.3,3.00,263.7
"2016-01-15 00:38:30",1285928,10.48,290.2,7.108,1.209,8.77,101.1527,2.24,3.466,24.71,0,109.8,13.3,3.00,252.2
"2016-01-15 00:39:00",1285929,9.91,290.8,9.96,1.329,8.31,101.1516,2.238,3.456,24.89,0,109.8,13.3,3.00,252.8
"2016-01-15 00:39:30",1285930,10.82,311.7,7.647,1.554,8.14,101.1499,2.233,3.489,24.4,0,109.8,13.3,2.99,273.7
"2016-01-15 00:40:00",1285931,9.28,310.3,10,1.253,8.45,101.1488,2.23,3.486,24.24,0,109.8,13.3,2.99,272.3
"2016-01-15 00:40:30",1285932,10.43,318.7,8.63,1.378,7.427,101.1491,2.231,3.389,23.91,0,109.8,13.3,2.99,280.7
"2016-01-15 00:41:00",1285933,12.6,325.2,6.294,1.252,8.9,101.1474,2.227,3.48,23.91,0,109.8,13.3,2.99,287.2
"2016-01-15 00:41:30",1285934,11.56,328.7,6.469,1.376,9.18,101.1469,2.225,3.491,24.16,0,109.8,13.3,2.99,290.7
"2016-01-15 00:42:00",1285935,11.06,324.8,7.464,1.412,9.23,101.148,2.228,3.484,24.23,0,109.8,13.31,2.99,286.8
"2016-01-15 00:42:30",1285936,11.37,324.3,7.478,1.253,9.48,101.148,2.228,3.496,24.4,0,109.8,13.31,2.99,286.3
"2016-01-15 00:43:00",1285937,11.47,329,7.177,1.269,9.4,101.1443,2.219,3.464,24.33,0,109.8,13.31,2.98,291.0
"2016-01-15 00:43:30",1285938,11.48,330.8,7.139,1.303,9.77,101.1452,2.221,3.489,24.21,0,109.8,13.31,2.98,292.8
"2016-01-15 00:44:00",1285939,11.16,328.6,6.044,1.25,9.34,101.1463,2.224,3.492,24.1,0,109.8,13.31,2.98,290.6
"2016-01-15 00:44:30",1285940,10.46,321.1,6.577,1.246,8.98,101.1432,2.216,3.469,24.22,0,109.8,13.31,2.98,283.1
"2016-01-15 00:45:00",1285941,11.03,327.7,6.458,1.22,9.27,101.1367,2.2,3.464,24.14,0,109.8,13.31,2.96,289.7
"2016-01-15 00:45:30",1285942,10.85,328.1,7.141,1.169,9.27,101.1359,2.198,3.457,23.68,0,109.8,13.31,2.96,290.1
"2016-01-15 00:46:00",1285943,10.75,330.5,7.767,1.205,9.18,101.1367,2.2,3.449,23.51,0,109.8,13.31,2.96,292.5
"2016-01-15 00:46:30",1285944,10.49,328.3,6.955,1.324,9.49,101.1399,2.208,3.462,23.63,0,109.8,13.31,2.97,290.3
"2016-01-15 00:47:00",1285945,10.28,332.9,6.223,1.217,9.02,101.1393,2.206,3.483,23.78,0,109.8,13.31,2.97,294.9
"2016-01-15 00:47:30",1285946,10.25,327.2,6.851,1.27,8.9,101.1399,2.208,3.44,24.03,0,109.8,13.31,2.97,289.2
"2016-01-15 00:48:00",1285947,10.42,330.4,6.795,1.283,8.96,101.139,2.206,3.451,24.26,0,109.8,13.31,2.97,292.4
"2016-01-15 00:48:30",1285948,10.93,332.6,7.132,1.236,9,101.1385,2.204,3.433,24.21,0,109.7,13.31,2.96,294.6
"2016-01-15 00:49:00",1285949,11.3,343.3,6.942,1.386,8.96,101.1331,2.19,3.414,24.11,0,109.8,13.31,2.95,305.3
"2016-01-15 00:49:30",1285950,10.99,332,6.597,1.249,9.18,101.1263,2.173,3.442,24.26,0,109.8,13.31,2.93,294.0
"2016-01-15 00:50:00",1285951,10.17,329.5,6.13,1.384,8.91,101.1221,2.162,3.453,24.29,0,109.8,13.31,2.92,291.5
"2016-01-15 00:50:30",1285952,10.79,329.5,8.88,1.328,8.97,101.1209,2.159,3.41,24.19,0,109.7,13.31,2.92,291.5
"2016-01-15 00:51:00",1285953,11.19,344.3,7.928,1.151,9.23,101.1181,2.152,3.421,23.78,0,109.8,13.31,2.91,306.3
"2016-01-15 00:51:30",1285954,9.91,333.3,7.689,1.319,8.86,101.1116,2.136,3.424,23.49,0,109.8,13.31,2.90,295.3
"2016-01-15 00:52:00",1285955,9.77,332.5,6.788,1.377,9.18,101.1085,2.128,3.421,23.55,0,109.8,13.31,2.89,294.5
"2016-01-15 00:52:30",1285956,9.34,329,6.701,1.394,9.35,101.1051,2.119,3.416,23.57,0,109.8,13.31,2.88,291.0
"2016-01-15 00:53:00",1285957,9.43,329.1,6.995,1.304,8.75,101.1059,2.121,3.425,23.75,0,109.8,13.31,2.88,291.1
"2016-01-15 00:53:30",1285958,9.64,326.2,6.537,1.269,8.59,101.1051,2.119,3.421,23.99,0,109.8,13.31,2.88,288.2
"2016-01-15 00:54:00",1285959,10.26,332.1,6.838,1.328,8.79,101.1079,2.126,3.403,24.2,0,109.8,13.31,2.89,294.1
"2016-01-15 00:54:30",1285960,10.37,333.9,6.541,1.306,8.69,101.1074,2.125,3.378,24.1,0,109.8,13.31,2.88,295.9
"2016-01-15 00:55:00",1285961,10.59,330.6,7.217,1.25,8.84,101.1085,2.128,3.399,24,0,109.7,13.31,2.89,292.6
"2016-01-15 00:55:30",1285962,10.86,333.5,6.646,1.209,9.02,101.1108,2.134,3.409,24.07,0,109.8,13.31,2.89,295.5
"2016-01-15 00:56:00",1285963,10.97,326.8,6.623,1.254,8.48,101.1111,2.134,3.414,24.36,0,109.7,13.31,2.89,288.8
"2016-01-15 00:56:30",1285964,10.28,325.9,6.953,1.22,8.7,101.1082,2.127,3.394,24.42,0,109.7,13.31,2.89,287.9
"2016-01-15 00:57:00",1285965,9.35,328.2,6.371,1.294,8.95,101.1046,2.118,3.408,24.48,0,109.8,13.31,2.88,290.2
"2016-01-15 00:57:30",1285966,9.25,324.9,6.993,1.264,8.78,101.1032,2.114,3.372,24.41,0,109.7,13.31,2.87,286.9
"2016-01-15 00:58:00",1285967,9.58,325.9,6.492,1.259,8.62,101.0984,2.102,3.369,24.51,0,109.8,13.31,2.86,287.9
"2016-01-15 00:58:30",1285968,10.04,329.1,6.386,1.263,8.79,101.093,2.088,3.371,24.6,0,109.8,13.31,2.85,291.1
"2016-01-15 00:59:00",1285969,9.47,337.7,6.039,1.286,8.6,101.093,2.088,3.363,24.82,0,109.7,13.31,2.85,299.7
"2016-01-15 00:59:30",1285970,9.74,335.5,6.797,1.227,8.57,101.0902,2.081,3.345,25.01,0,109.7,13.32,2.84,297.5
"2016-01-15 01:00:00",1285971,9.49,333.5,6.691,1.244,8.36,101.0797,2.054,3.345,25.05,0,109.7,13.32,2.81,295.5
"2016-01-15 01:00:30",1285972,8.82,340.4,6.673,1.216,8.41,101.0797,2.054,3.34,25.03,0,109.7,13.32,2.81,302.4
"2016-01-15 01:01:00",1285973,9.01,339.2,7.254,1.372,8.15,101.0789,2.052,3.319,25.38,0,109.7,13.32,2.81,301.2
"2016-01-15 01:01:30",1285974,9.28,336.8,7.065,1.436,8.14,101.0772,2.048,3.301,25.3,0,109.7,13.32,2.81,298.8
"2016-01-15 01:02:00",1285975,8.55,332.9,7.466,1.377,7.409,101.0644,2.015,3.218,24.85,0,109.7,13.32,2.77,294.9
"2016-01-15 01:02:30",1285976,7.797,333.4,6.606,1.353,6.746,101.0585,2,3.125,24.66,0,109.7,13.32,2.76,295.4
"2016-01-15 01:03:00",1285977,8.09,337.1,7.553,1.417,8.08,101.0492,1.976,3.232,24.78,0,109.7,13.32,2.74,299.1
"2016-01-15 01:03:30",1285978,7.95,339.2,8.17,1.325,8.85,101.0461,1.968,3.232,24.89,0,109.7,13.32,2.73,301.2
"2016-01-15 01:04:00",1285979,6.972,353.6,8.78,1.321,8.61,101.0469,1.97,3.259,25.19,0,109.7,13.32,2.73,315.6
"2016-01-15 01:04:30",1285980,5.485,359.3,11.03,1.751,7.337,101.0469,1.971,3.19,25.88,0,109.7,13.32,2.73,321.3
"2016-01-15 01:05:00",1285981,6.122,345.2,7.243,1.443,6.079,101.0396,1.952,3.105,26.12,0,109.7,13.32,2.71,307.2
"2016-01-15 01:05:30",1285982,5.333,10.4,12.52,2.055,6.555,101.0299,1.927,3.173,26.07,0,109.7,13.32,2.69,332.4
"2016-01-15 01:06:00",1285983,5.432,347.6,21.9,1.374,5.553,101.0181,1.897,3.043,25.93,0,109.7,13.33,2.66,309.6
"2016-01-15 01:06:30",1285984,8.37,342.5,7.214,1.287,8.64,101.017,1.894,3.188,25.43,0,109.7,13.33,2.65,304.5
"2016-01-15 01:07:00",1285985,8.29,4.519,15.19,1.44,8.48,101.0153,1.89,3.191,25.62,0,109.7,13.33,2.65,326.5
"2016-01-15 01:07:30",1285986,7.042,6.537,10.68,1.497,8.87,101.0014,1.854,3.188,25.63,0,109.7,13.33,2.61,328.5
"2016-01-15 01:08:00",1285987,7.745,10.15,10.18,1.635,8.33,100.9952,1.839,3.177,25.23,0,109.7,13.33,2.60,332.1
"2016-01-15 01:08:30",1285988,8.35,3.742,8.68,1.774,8.34,100.985,1.813,3.145,25.83,0,109.7,13.33,2.57,325.7
"2016-01-15 01:09:00",1285989,7.957,357.2,8.64,1.343,8.12,100.9839,1.81,3.122,25.5,0,109.7,13.32,2.57,319.2
"2016-01-15 01:09:30",1285990,6.108,17.64,12.72,1.769,7.638,100.9839,1.81,3.125,25.84,0,109.7,13.32,2.57,339.6
"2016-01-15 01:10:00",1285991,6.752,17.53,11.28,1.724,7.195,100.9765,1.791,3.026,26.03,0,109.7,13.32,2.55,339.5
"2016-01-15 01:10:30",1285992,5.561,42.16,4.61,0.729,4.493,100.9638,1.758,2.892,26.44,0,109.7,13.32,2.52,4.2
"2016-01-15 01:11:00",1285993,5.146,23.8,6.858,1.285,5.875,100.9542,1.734,2.895,26.59,0,109.7,13.32,2.49,345.8
"2016-01-15 01:11:30",1285994,7.581,27.57,14.41,1.802,7.783,100.9508,1.725,3.037,26.65,0,109.7,13.32,2.48,349.6
"2016-01-15 01:12:00",1285995,8.25,48.81,10.17,1.875,8.79,100.9428,1.705,3.051,26.97,0,109.7,13.32,2.46,10.8
"2016-01-15 01:12:30",1285996,5.12,29.3,14.54,1.559,8.43,100.9261,1.662,3.04,27.13,0,109.7,13.32,2.42,351.3
"2016-01-15 01:13:00",1285997,7.59,31.27,11.99,1.467,7.949,100.9171,1.639,2.955,27.22,0,109.7,13.32,2.40,353.3
"2016-01-15 01:13:30",1285998,5.45,22.6,8.89,1.887,7.108,100.914,1.631,2.89,27.2,0,109.7,13.32,2.39,344.6
"2016-01-15 01:14:00",1285999,3.288,11.06,11.25,1.079,5.946,100.9004,1.597,2.776,26.91,0,109.7,13.32,2.35,333.1
"2016-01-15 01:14:30",1286000,4.356,8.72,6.719,2.511,5.935,100.8961,1.586,2.78,26.26,0,109.7,13.33,2.34,330.7
"2016-01-15 01:15:00",1286001,5.475,9.53,11.17,2.112,7.157,100.8845,1.556,2.841,26.31,0,109.7,13.33,2.31,331.5
"2016-01-15 01:15:30",1286002,7.699,5.319,8.03,1.66,8.83,100.8823,1.55,2.872,26.55,0,109.7,13.33,2.31,327.3
"2016-01-15 01:16:00",1286003,8.31,354.2,8.96,1.616,7.766,100.871,1.522,2.836,26.88,0,109.7,13.33,2.28,316.2
"2016-01-15 01:16:30",1286004,7.666,1.369,7.735,1.567,8.32,100.8653,1.507,2.83,27.14,0,109.7,13.33,2.26,323.4
"2016-01-15 01:17:00",1286005,8.13,3.703,7.713,1.934,8.2,100.8545,1.48,2.843,26.95,0,109.7,13.33,2.24,325.7
"2016-01-15 01:17:30",1286006,8.18,2.125,7.659,1.377,8.28,100.8489,1.465,2.823,26.93,0,109.7,13.33,2.22,324.1
"2016-01-15 01:18:00",1286007,8.75,358,14.19,2.255,7.991,100.8489,1.465,2.769,26.77,0,109.7,13.33,2.22,320.0
"2016-01-15 01:18:30",1286008,6.243,9.99,9.2,1.693,8.04,100.8489,1.465,2.78,26.72,0,109.7,13.33,2.22,332.0
"2016-01-15 01:19:00",1286009,6.53,357.2,13.97,1.69,8,100.848,1.463,2.792,26.67,0,109.7,13.33,2.22,319.2
"2016-01-15 01:19:30",1286010,7.3,345.8,14.75,2.068,6.856,100.8478,1.462,2.675,26.35,0,109.7,13.33,2.22,307.8
"2016-01-15 01:20:00",1286011,6.78,335.6,5.911,0.754,4.475,100.8421,1.448,2.48,26.04,0,109.7,13.38,2.21,297.6
"2016-01-15 01:20:30",1286012,8.77,331.5,8.74,2.654,6.554,100.8401,1.443,2.603,26.1,0,109.7,13.33,2.20,293.5
"2016-01-15 01:21:00",1286013,10.89,338.9,12.79,1.772,9.35,100.8415,1.447,2.759,25.6,0,109.7,13.33,2.20,300.9
"2016-01-15 01:21:30",1286014,8.82,342.9,13.66,2.148,9.51,100.8466,1.46,2.748,25.75,0,109.7,13.33,2.22,304.9
"2016-01-15 01:22:00",1286015,9.11,356.2,11.27,3.044,8.81,100.8492,1.466,2.767,26.2,0,109.7,13.33,2.22,318.2
"2016-01-15 01:22:30",1286016,10.87,348.7,8.02,1.332,8.88,100.8498,1.467,2.741,26.11,0,109.7,13.33,2.22,310.7
"2016-01-15 01:23:00",1286017,10.68,347.3,8.78,1.367,8.98,100.8495,1.467,2.729,25.97,0,109.7,13.33,2.22,309.3
"2016-01-15 01:23:30",1286018,12.64,330.4,11.16,1.61,9,100.8503,1.469,2.72,25.58,0,109.7,13.33,2.23,292.4
"2016-01-15 01:24:00",1286019,10.71,339.3,7.919,1.828,9.29,100.8631,1.501,2.763,25.21,0,109.7,13.33,2.26,301.3
"2016-01-15 01:24:30",1286020,9.66,336.8,11.03,1.528,9.34,100.8738,1.529,2.775,25.45,0,109.7,13.33,2.29,298.8
"2016-01-15 01:25:00",1286021,7.781,330.6,8.36,1.394,8.83,100.8863,1.561,2.788,25.18,0,109.7,13.33,2.32,292.6
"2016-01-15 01:25:30",1286022,7.457,354.7,11.85,1.381,8.46,100.8883,1.566,2.807,25.36,0,109.7,13.33,2.32,316.7
"2016-01-15 01:26:00",1286023,5.143,3.041,9.65,1.56,7.944,100.8965,1.587,2.746,25.76,0,109.7,13.33,2.34,325.0
"2016-01-15 01:26:30",1286024,4.155,349.8,14.88,2.406,4.589,100.9078,1.616,2.546,25.41,0,109.7,13.37,2.37,311.8
"2016-01-15 01:27:00",1286025,5.743,322.3,7.938,0.993,5.52,100.9058,1.611,2.62,25.33,0,109.7,13.33,2.37,284.3
"2016-01-15 01:27:30",1286026,6.932,324.7,8.68,1.478,7.435,100.9098,1.621,2.76,26.28,0,109.7,13.33,2.38,286.7
"2016-01-15 01:28:00",1286027,9.48,324.6,10.1,1.733,9.32,100.9175,1.64,2.837,25.67,0,109.7,13.33,2.40,286.6
"2016-01-15 01:28:30",1286028,7.774,343.1,14.09,1.834,9.12,100.926,1.662,2.849,25.1,0,109.7,13.33,2.42,305.1
"2016-01-15 01:29:00",1286029,4.977,9.09,14.59,1.638,8.55,100.9308,1.674,2.831,25.41,0,109.7,13.33,2.43,331.1
"2016-01-15 01:29:30",1286030,6.163,357.8,9.45,1.583,8.08,100.9305,1.674,2.829,26.01,0,109.7,13.33,2.43,319.8
"2016-01-15 01:30:00",1286031,9.39,333.3,15.16,1.99,5.775,100.9297,1.671,2.709,25.59,0,109.7,13.32,2.43,295.3
"2016-01-15 01:30:30",1286032,11.75,332.7,6.717,1.387,6.791,100.9308,1.674,2.725,25.08,0,109.7,13.33,2.43,294.7
"2016-01-15 01:31:00",1286033,11.81,331.3,7.891,1.524,8.89,100.9317,1.676,2.839,25.17,0,109.7,13.33,2.43,293.3
"2016-01-15 01:31:30",1286034,10.23,350.8,9.95,1.533,9.38,100.9339,1.682,2.888,25.34,0,109.7,13.33,2.44,312.8
"2016-01-15 01:32:00",1286035,12.51,332.9,8.69,1.482,9.43,100.9337,1.682,2.879,25.54,0,109.7,13.33,2.44,294.9
"2016-01-15 01:32:30",1286036,11.92,333,8.76,1.669,9.64,100.9345,1.684,2.888,25.67,0,109.7,13.33,2.44,295.0
"2016-01-15 01:33:00",1286037,12.68,339,7.522,1.3,9.41,100.9353,1.686,2.925,25.48,0,109.7,13.33,2.44,301.0
"2016-01-15 01:33:30",1286038,11.43,329.9,8.15,1.328,8.88,100.9399,1.697,2.923,25.46,0,109.7,13.33,2.46,291.9
"2016-01-15 01:34:00",1286039,11.75,324.6,9.14,1.377,9.14,100.9444,1.709,2.918,25.61,0,109.7,13.33,2.47,286.6
"2016-01-15 01:34:30",1286040,12.36,329.8,6.627,1.826,8.99,100.9473,1.716,2.945,25.77,0,109.7,13.33,2.47,291.8
"2016-01-15 01:35:00",1286041,15.16,324,6.566,1.249,9.13,100.9507,1.725,2.928,25.26,0,109.7,13.33,2.48,286.0
"2016-01-15 01:35:30",1286042,15.05,329.5,6.949,1.554,9.28,100.9532,1.731,2.96,25.26,0,109.7,13.33,2.49,291.5
"2016-01-15 01:36:00",1286043,16.01,326.7,6.758,1.588,9.46,100.9591,1.747,2.952,25.29,0,109.7,13.33,2.50,288.7
"2016-01-15 01:36:30",1286044,15.94,326.5,7.562,1.437,9.2,100.9696,1.773,2.941,25.15,0,109.7,13.33,2.53,288.5
"2016-01-15 01:37:00",1286045,14.78,325.2,6.742,1.492,9.58,100.9685,1.77,2.96,25.22,0,109.7,13.33,2.53,287.2
"2016-01-15 01:37:30",1286046,16.18,327.5,7.2,1.321,9.7,100.9705,1.775,3.005,25.22,0,109.7,13.33,2.53,289.5
"2016-01-15 01:38:00",1286047,15.6,328.5,6.739,1.504,9.38,100.9739,1.784,2.987,25.37,0,109.7,13.33,2.54,290.5
"2016-01-15 01:38:30",1286048,15.49,329.1,7.819,1.434,9.47,100.977,1.792,3.005,25.22,0,109.7,13.33,2.55,291.1
"2016-01-15 01:39:00",1286049,15.38,326.8,7.142,1.784,9.39,100.981,1.802,2.994,25.25,0,109.7,13.33,2.56,288.8
"2016-01-15 01:39:30",1286050,16.9,329.2,7.911,1.629,9.57,100.9827,1.807,2.988,25.37,0,109.7,13.33,2.57,291.2
"2016-01-15 01:40:00",1286051,16.29,327.1,7.235,1.611,9.88,100.9855,1.814,3.044,25.21,0,109.8,13.33,2.57,289.1
"2016-01-15 01:40:30",1286052,16.53,332.1,7.254,1.601,9.79,100.99,1.825,3.052,25.33,0,109.7,13.33,2.58,294.1
"2016-01-15 01:41:00",1286053,15.59,334.2,6.852,1.197,9.77,100.996,1.841,3.03,25.09,0,109.7,13.33,2.60,296.2
"2016-01-15 01:41:30",1286054,16.03,329.9,6.75,1.465,9.57,100.9996,1.85,3.03,25.14,0,109.7,13.33,2.61,291.9
"2016-01-15 01:42:00",1286055,16.77,324.5,6.806,1.325,9.46,101.0044,1.862,3.043,25.13,0,109.7,13.33,2.62,286.5
"2016-01-15 01:42:30",1286056,14.95,325.7,6.627,1.374,9.75,101.0047,1.863,3.073,25.12,0,109.6,13.33,2.62,287.7
"2016-01-15 01:43:00",1286057,14.38,326.6,6.989,1.184,9.69,101.007,1.869,3.094,25.22,0,109.7,13.33,2.63,288.6
"2016-01-15 01:43:30",1286058,14.01,320,6.703,1.338,9.57,101.0073,1.869,3.075,25.19,0,109.7,13.33,2.63,282.0
"2016-01-15 01:44:00",1286059,14,322.8,6.596,1.264,9.53,101.0124,1.882,3.106,25.11,0,109.7,13.32,2.64,284.8
"2016-01-15 01:44:30",1286060,14.4,328.4,8.63,1.232,9.54,101.0206,1.903,3.106,25.13,0,109.7,13.32,2.66,290.4
"2016-01-15 01:45:00",1286061,12.84,332.8,6.494,1.688,9.51,101.0237,1.911,3.093,25.14,0,109.7,13.32,2.67,294.8
"2016-01-15 01:45:30",1286062,11.7,329.8,6.83,1.38,9.22,101.0243,1.913,3.126,25.15,0,109.7,13.32,2.67,291.8
"2016-01-15 01:46:00",1286063,13.99,326,7.168,1.611,9.43,101.0248,1.914,3.119,25.21,0,109.7,13.32,2.67,288.0
"2016-01-15 01:46:30",1286064,15.22,325.9,7.656,1.357,9.43,101.0268,1.919,3.126,25.21,0,109.7,13.32,2.68,287.9
"2016-01-15 01:47:00",1286065,14.04,328.7,8.04,1.283,9.31,101.0299,1.927,3.141,25.26,0,109.7,13.32,2.69,290.7
"2016-01-15 01:47:30",1286066,14.31,322.4,6.543,1.438,9.5,101.0376,1.947,3.144,25.37,0,109.7,13.33,2.71,284.4
"2016-01-15 01:48:00",1286067,15.31,324.9,6.63,1.248,9.15,101.0418,1.958,3.152,25.38,0,109.7,13.33,2.72,286.9
"2016-01-15 01:48:30",1286068,14.92,329.5,7.163,1.16,9.35,101.039,1.95,3.147,25.44,0,109.6,13.33,2.71,291.5
"2016-01-15 01:49:00",1286069,14.23,321.2,7.034,1.299,9.41,101.0407,1.955,3.15,25.53,0,109.7,13.33,2.71,283.2